Flag for U.S.A. Weather past 2 weeks in Provo, Utah, U.S.A.

Now
36 °F

Light snow. Broken clouds.


Feels Like: 31 °F
Forecast: 33 / 46 °F
Wind: 6 mph from North

Location: Provo Municipal

Current Time: Feb 28, 2015 at 6:43:46 PM

Latest Report: Feb 28, 2015 at 5:47 PM


Visibility: 3 mi

Pressure: 29.78 "Hg

Humidity: 81%

Dew point: 30 °F

Location of ProvoLocation

Historic Weather in Provo — Graph

°F

Provo temperature yesterday

Maximum temperature yesterday: 45 °F (at 3:51 PM)
Minimum temperature yesterday: 27 °F (at 5:55 AM)
Average temperature yesterday: 33 °F

Past Weeks' High & Low Weather Summary

 TemperatureHumidityPressure
High57 °F (Feb 14, 1:48 PM)93% (Feb 21, 8:47 PM)30.35 "Hg (Feb 21, 8:47 PM)
Low21 °F (Feb 17, 6:35 AM)23% (Feb 24, 3:55 PM)29.65 "Hg (Feb 28, 4:55 AM)
Average34 °F61%30.08 "Hg
* Reported Feb 13 4:57 PM — Feb 28 4:54 PM, Provo, Weather by CustomWeather, © 2015

Note: Actual official high and low records may vary slightly from our data, if they occured in-between our weather recording intervals... More about our weather records

Advertising

Provo weather history for previous 24 hours

 ConditionsComfort  
Time TempWeatherWind HumidityBarometerVisibility
4:54 PM
Sat, Feb 28
36 °FLight snow. Cloudy.10 mph81%29.76 "Hg10 mi
3:50 PM39 °FScattered showers. Overcast.14 mph65%29.71 "Hg10 mi
2:48 PM39 °FScattered showers. Mostly cloudy.7 mph65%29.69 "Hg10 mi
1:53 PM39 °FScattered showers. Broken clouds.14 mph61%29.68 "Hg15 mi
12:52 PM43 °FScattered showers. Cloudy.12 mph46%29.69 "Hg15 mi
11:59 AM43 °FScattered showers. Mostly cloudy.10 mph46%29.71 "Hg15 mi
10:58 AM43 °FScattered showers. Partly sunny.14 mph42%29.70 "Hg15 mi
6:35 AM28 °FClear.No wind69%29.67 "Hg10 mi
6:15 AM32 °FClear.5 mph60%29.66 "Hg10 mi
5:55 AM34 °FClear.9 mph70%29.66 "Hg10 mi
5:35 AM30 °FClear.6 mph75%29.65 "Hg10 mi
5:15 AM34 °FClear.8 mph60%29.65 "Hg10 mi
4:55 AM34 °FClear.7 mph60%29.65 "Hg10 mi
4:35 AM28 °FClear.9 mph86%29.66 "Hg10 mi
4:15 AM25 °FClear.5 mph74%29.67 "Hg10 mi
3:55 AM25 °FClear.3 mph74%29.67 "Hg10 mi
3:35 AM25 °FClear.3 mph69%29.67 "Hg10 mi
3:15 AM28 °FClear.7 mph74%29.69 "Hg10 mi
2:55 AM25 °FClear.9 mph80%29.69 "Hg10 mi
2:35 AM25 °FClear.5 mph86%29.69 "Hg10 mi
2:15 AM25 °FClear.3 mph80%29.70 "Hg10 mi
1:55 AM27 °FClear.No wind80%29.69 "Hg10 mi
1:35 AM27 °FClear.No wind74%29.70 "Hg10 mi
1:15 AM28 °FClear.7 mph74%29.69 "Hg10 mi
12:55 AM27 °FClear.8 mph80%29.70 "Hg10 mi
12:35 AM28 °FClear.No wind74%29.70 "Hg10 mi
12:15 AM28 °FClear.5 mph74%29.70 "Hg10 mi
11:55 PM
Fri, Feb 27
28 °FClear.No wind74%29.70 "Hg10 mi
11:35 PM28 °FClear.No wind80%29.70 "Hg10 mi
11:15 PM32 °FClear.3 mph75%29.71 "Hg10 mi
10:55 PM28 °FClear.6 mph86%29.70 "Hg10 mi
10:35 PM30 °FClear.3 mph69%29.71 "Hg10 mi
10:15 PM32 °FClear.No wind64%29.71 "Hg10 mi
9:55 PM30 °FClear.6 mph80%29.71 "Hg10 mi
9:35 PM30 °FClear.No wind75%29.71 "Hg10 mi
9:15 PM32 °FClear.No wind75%29.71 "Hg10 mi
Weather by CustomWeather, © 2015

See weather overviewHow to use our weather pages